Flag for Chile Weather past 2 weeks in Osorno, Chile

Now
45 °F

Passing clouds.


Feels Like: 39 °F
Forecast: 40 / 51 °F
Wind: 10 mph from North

Location: Puerto Montt Airport

Current Time: Jul 1, 2015 at 9:22:02 PM

Latest Report: Jul 1, 2015 at 9:00 PM


Visibility: N/A

Pressure: 30.01 "Hg

Humidity: 93%

Dew point: 43 °F

Location of OsornoLocation

Historic Weather in Osorno — Graph

°F

Osorno temperature yesterday

Maximum temperature yesterday: 48 °F (at 12:00 AM)
Minimum temperature yesterday: 34 °F (at 11:00 PM)
Average temperature yesterday: 45 °F

Past Weeks' High & Low Weather Summary

 TemperatureHumidityPressure
High61 °F (Jun 25, 4:00 PM)100% (Jun 17, 8:00 AM)30.45 "Hg (Jun 17, 8:00 AM)
Low27 °F (Jun 18, 6:00 AM)57% (Jun 22, 3:00 PM)29.83 "Hg (Jun 19, 4:00 PM)
Average43 °F89%30.13 "Hg
* Reported Jun 16 8:00 PM — Jul 1 8:00 PM, Osorno, Weather by CustomWeather, © 2015

Note: Actual official high and low records may vary slightly from our data, if they occured in-between our weather recording intervals... More about our weather records

Advertising

Osorno weather history for previous 24 hours

 ConditionsComfort  
Time TempWeatherWind HumidityBarometerVisibility
8:00 PM
Wed, Jul 1
46 °FSprinkles. Passing clouds.9 mph87%30.01 "Hg4 mi
7:00 PM46 °FPassing clouds.12 mph87%30.01 "HgN/A
6:00 PM46 °FPartly cloudy.16 mph82%30.01 "HgN/A
5:00 PM46 °FPartly sunny.17 mph82%30.01 "HgN/A
4:00 PM46 °FPartly sunny.17 mph82%30.01 "HgN/A
3:00 PM45 °FPartly sunny.13 mph87%30.04 "HgN/A
2:00 PM45 °FPartly sunny.10 mph81%30.07 "HgN/A
1:00 PM43 °FBroken clouds.13 mph81%30.09 "HgN/A
12:00 PM41 °FBroken clouds.8 mph93%30.12 "HgN/A
11:00 AM39 °FPartly sunny.5 mph93%30.12 "HgN/A
10:00 AM37 °FScattered showers. Broken clouds.5 mph93%30.12 "Hg4 mi
9:00 AM37 °FLight rain. Overcast.No wind93%30.12 "Hg4 mi
8:00 AM36 °FLight rain. Overcast.No wind93%30.12 "HgN/A
7:00 AM34 °FOvercast.No wind100%30.12 "HgN/A
6:00 AM34 °FOvercast.No wind100%30.15 "HgN/A
5:00 AM34 °FOvercast.No wind93%30.15 "HgN/A
4:00 AM32 °FPassing clouds.No wind100%30.18 "HgN/A
3:00 AM32 °FPassing clouds.No wind100%30.18 "HgN/A
2:00 AM34 °FClear.No wind93%30.21 "Hg10 mi
1:00 AM32 °FClear.No wind93%30.21 "Hg10 mi
12:00 AM32 °FClear.No wind93%30.21 "Hg10 mi
11:00 PM
Tue, Jun 30
34 °FClear.3 mph93%30.21 "Hg10 mi
10:00 PM36 °FClear.No wind87%30.21 "Hg10 mi
9:00 PM37 °FClear.No wind87%30.21 "Hg10 mi
Weather by CustomWeather, © 2015

See weather overviewHow to use our weather pages